Theta_e
331 330 329 328 327 327 324 322 321 320 318 316 315 314 314 314 316 314 313 312 312 312 311 310 310 310 311 309 309 308 307 306 306 305 304 305 303 303 302 301 300 300
330 330 329 328 326 325 324 323 322 320 318 316 315 315 315 315 315 314 312 311 312 311 310 309 309 309 309 309 307 306 306 305 305 307 304 303 302 301 301 300 300 299
330 328 328 327 326 325 324 323 322 321 318 317 316 316 315 315 313 312 311 310 310 309 309 309 309 309 308 307 307 307 305 304 304 304 303 301 301 300 300 299 298 299
329 329 328 327 326 325 324 323 322 320 318 317 316 315 315 315 312 311 310 313 309 308 308 308 308 307 307 306 305 304 304 304 304 303 302 302 301 300 299 300 301 300
329 328 328 327 327 326 325 323 322 320 319 317 315 315 315 313 311 310 309 308 308 308 308 307 306 306 306 305 304 304 304 303 302 302 302 301 301 301 300 300 298 298
330 329 328 327 326 325 325 324 322 320 318 316 315 315 313 312 311 310 309 307 307 307 306 306 305 305 305 304 304 304 303 303 302 302 301 300 300 301 301 299 298 298
329 328 327 327 326 325 325 324 322 320 318 317 316 314 312 311 310 309 308 308 307 307 306 305 304 304 304 304 303 303 302 302 301 301 301 300 301 299 299 299 299 297
329 328 327 326 325 325 324 323 321 319 317 316 315 313 312 311 310 309 308 308 307 306 305 305 305 304 304 303 303 302 301 303 302 301 300 300 300 299 298 300 297 297
329 328 327 326 325 324 324 322 320 317 317 315 314 312 312 311 310 309 308 307 307 306 305 305 305 304 303 303 302 302 302 301 302 301 300 299 299 298 298 298 297 298
328 328 327 326 325 325 324 322 319 317 316 315 313 312 311 311 310 309 308 307 306 305 305 305 304 304 303 302 303 302 301 301 300 300 299 299 299 298 298 298 297 297
328 328 327 326 325 325 324 321 318 316 315 314 313 311 311 310 309 308 307 306 306 305 305 304 304 303 303 302 302 302 301 301 300 299 299 299 299 299 303 298 299 299
328 328 327 326 325 325 322 320 318 316 315 314 313 311 310 310 309 308 307 306 306 305 305 304 304 303 303 302 302 301 301 300 300 300 299 299 299 301 300 300 300 299
328 328 327 326 325 323 321 320 318 317 315 313 313 312 310 309 308 307 307 306 306 305 305 304 304 303 303 302 301 301 301 300 300 299 299 299 300 301 301 300 299 299
328 328 327 326 324 322 320 319 318 317 315 314 313 311 310 309 308 307 306 306 305 305 305 305 304 303 302 301 301 301 301 300 300 300 299 300 300 300 300 299 297 296
328 327 327 325 323 321 320 318 317 316 315 314 313 311 311 309 308 307 306 305 305 305 304 305 304 303 302 301 300 300 300 300 300 300 300 300 300 299 297 296 294 294
327 326 325 323 321 320 319 318 316 316 314 313 312 311 310 309 308 307 306 305 304 304 304 304 304 304 306 305 304 301 300 301 301 300 300 300 300 296 294 294 293 294
326 325 324 322 320 320 319 317 316 315 314 312 311 310 309 308 307 306 305 304 304 303 303 304 304 305 302 298 298 301 302 300 300 299 300 300 298 296 294 294 294 297
325 324 323 321 320 319 318 317 315 314 312 311 310 309 308 308 306 306 305 304 304 303 303 303 303 304 297 297 297 298 302 301 300 300 301 300 298 295 295 294 294 295
325 323 322 320 319 318 317 316 314 313 312 310 309 309 308 307 306 306 304 304 303 302 302 303 302 300 296 297 297 297 298 301 300 300 301 300 297 295 294 294 293 294
324 323 321 320 319 318 317 315 314 312 312 311 310 309 308 307 306 305 304 303 303 302 302 302 302 299 296 296 296 296 296 299 301 301 301 301 299 296 294 293 292 292
323 322 321 319 318 317 316 315 314 312 311 311 310 309 308 306 305 304 303 303 303 302 301 301 302 297 295 296 295 296 296 299 302 303 302 302 300 298 297 295 294 294
323 321 320 319 317 316 315 314 313 312 311 310 310 309 308 307 306 305 304 303 302 301 301 300 300 295 295 295 295 295 297 303 302 302 301 300 299 298 297 297 295 294
322 321 319 318 317 315 315 314 313 312 311 310 309 308 307 306 306 305 305 303 302 301 301 300 298 295 294 295 295 295 299 302 301 301 300 300 300 298 298 298 297 296
322 320 318 317 316 315 314 314 313 312 311 310 309 308 307 307 306 306 305 304 302 301 301 299 296 296 295 295 295 297 301 302 301 300 300 300 300 301 300 299 299 304
321 320 318 317 316 315 315 314 313 311 310 310 309 308 308 307 307 306 305 303 302 301 304 300 297 296 294 295 296 297 301 301 301 301 300 299 299 300 302 301 301 306
321 319 318 317 316 316 315 314 313 311 309 309 308 308 307 306 306 306 304 302 301 301 301 299 297 297 296 295 296 296 298 301 301 301 300 300 300 300 300 300 302 303
Wind_Speed
10 9 10 9 9 9 9 9 8 8 7 7 7 7 7 6 5 6 6 7 7 7 6 5 5 6 6 4 5 6 5 6 5 5 6 7 7 8 7 6 5 6
10 10 8 8 7 7 7 8 8 9 8 7 7 7 6 6 5 6 7 7 8 8 7 6 6 7 7 6 5 7 6 6 6 4 7 7 6 7 7 6 6 5
10 10 10 10 10 10 9 7 8 7 8 7 6 7 6 5 7 6 7 7 7 7 7 7 7 7 7 5 6 7 7 7 7 5 7 7 6 7 6 6 5 6
11 11 10 10 9 10 9 8 7 7 7 7 7 6 7 6 7 7 6 7 7 6 7 7 7 6 6 5 5 6 6 6 6 6 7 5 5 7 6 5 6 5
12 10 9 9 8 9 9 9 9 9 9 8 7 7 7 7 7 7 7 6 7 7 7 7 6 7 6 6 6 7 6 6 5 6 7 7 5 6 5 6 6 6
11 10 10 10 9 10 9 9 9 9 9 9 9 7 8 8 8 8 8 8 6 7 7 7 7 6 6 6 6 6 6 6 5 6 7 7 6 5 5 6 6 6
12 11 11 9 10 10 10 9 9 9 9 9 8 8 8 9 9 9 8 8 7 7 7 7 7 6 5 5 6 6 5 5 5 6 7 6 6 6 5 5 5 5
13 10 10 9 10 10 10 9 9 9 9 9 10 9 9 9 9 8 7 7 7 7 7 6 6 6 5 6 7 7 5 5 6 7 7 6 6 6 5 4 5 6
11 11 11 12 12 10 11 10 9 9 9 11 10 9 8 9 9 8 8 7 7 7 7 6 7 6 6 6 7 7 7 6 6 7 7 7 7 6 6 5 5 5
12 11 12 12 12 11 12 11 10 10 9 10 10 9 9 7 8 8 8 8 8 7 7 7 7 7 6 6 7 7 7 7 6 6 6 6 7 7 6 6 6 5
12 12 13 13 12 11 12 12 12 11 9 10 10 9 9 8 7 7 8 8 8 9 8 8 8 8 7 7 6 6 7 7 6 6 6 6 6 6 6 6 6 5
13 12 13 13 12 11 13 12 12 11 10 9 10 10 9 8 9 8 9 9 8 8 8 8 8 8 8 8 7 6 6 6 5 6 6 6 6 6 6 5 5 5
14 13 12 12 12 11 11 11 12 12 11 11 9 10 10 9 8 9 8 8 8 8 8 8 8 7 7 7 6 6 6 6 6 6 5 5 5 6 5 5 5 4
13 12 12 12 11 11 12 12 11 12 11 10 9 10 10 10 10 10 7 7 8 8 7 7 7 7 6 6 6 6 7 6 6 7 6 5 5 4 5 5 5 5
11 11 11 11 11 12 12 12 12 11 11 10 10 9 8 9 9 9 9 8 7 7 7 6 7 7 6 7 7 7 7 8 7 7 7 6 5 5 5 6 5 5
11 11 11 11 12 13 12 12 11 11 11 11 11 10 9 8 8 8 9 9 9 7 7 6 6 5 8 12 10 8 7 6 6 6 6 6 7 7 5 5 5 5
12 12 12 12 12 12 11 12 12 11 10 10 10 10 10 9 9 9 9 8 9 8 8 7 6 6 12 13 13 12 8 7 7 6 6 7 7 7 7 5 4 4
12 13 12 12 12 12 12 11 11 11 11 10 9 9 8 8 9 10 9 8 8 8 8 7 6 9 14 13 14 14 10 7 5 6 5 6 6 6 6 5 5 4
13 14 13 12 12 12 11 10 11 11 10 10 10 9 8 9 10 9 8 8 9 9 8 7 6 11 15 15 14 14 13 10 7 6 7 6 7 6 7 5 5 4
14 14 14 12 12 11 11 11 11 11 10 9 8 8 9 9 8 9 8 8 9 9 8 7 7 11 16 15 15 15 15 12 6 7 7 8 9 7 7 6 6 5
14 14 14 12 12 11 11 11 11 10 10 10 9 10 11 10 10 9 8 8 8 8 8 8 8 14 16 16 15 15 15 11 7 7 7 8 9 10 10 9 9 10
14 13 13 12 12 11 12 11 10 11 11 9 9 8 8 8 7 7 8 8 8 9 9 9 7 15 16 15 15 15 15 8 8 8 9 9 8 9 10 10 10 10
15 15 13 13 12 12 11 11 10 10 9 8 10 9 9 9 9 8 8 9 9 10 11 9 7 11 14 15 15 16 11 6 6 6 7 8 8 8 8 7 8 9
14 14 15 13 13 13 11 10 9 9 10 9 11 11 10 9 9 8 8 9 11 11 10 9 7 9 14 16 15 15 11 9 7 8 7 7 7 6 6 7 8 15
13 14 14 14 13 13 13 13 12 11 9 9 9 9 10 8 8 8 8 7 8 9 9 10 8 9 12 16 16 16 11 7 8 7 8 7 7 6 6 7 8 11
14 16 15 16 17 15 12 11 9 8 9 10 8 9 8 8 8 8 9 6 5 7 8 9 10 9 11 16 17 16 14 9 7 8 8 8 6 7 7 6 8 7
Wind_Direction
172 171 169 169 168 166 161 159 159 151 149 150 151 156 156 153 144 141 140 138 142 137 142 156 136 129 130 135 134 122 122 123 119 127 121 118 120 123 119 122 114 117
174 169 165 162 157 158 160 158 155 152 153 156 152 146 146 140 149 146 146 145 147 147 153 149 142 132 143 146 143 129 126 126 124 134 121 117 125 116 120 123 120 121
169 169 168 167 166 163 160 157 151 151 153 153 142 146 147 146 147 150 147 147 143 143 145 146 141 143 146 149 146 134 135 132 130 133 120 127 130 121 130 126 118 118
174 173 170 167 163 162 157 152 150 145 141 145 156 154 148 150 148 149 150 147 139 141 146 144 146 147 147 151 145 134 136 133 139 133 121 119 126 127 132 125 119 113
173 172 170 167 164 159 158 158 157 156 157 155 147 151 148 150 152 152 152 150 145 146 150 149 148 151 150 153 150 136 138 138 142 130 126 128 137 129 137 123 126 125
173 172 170 168 167 163 165 164 161 158 155 156 161 155 155 154 155 157 158 155 153 151 152 150 152 154 154 152 145 140 142 141 147 131 129 134 138 132 132 128 131 131
171 170 169 167 166 169 165 164 161 160 161 160 152 162 158 158 160 162 163 159 154 156 154 155 154 154 153 147 141 138 141 142 144 136 133 139 134 130 126 129 132 129
169 168 165 165 166 168 166 163 162 162 159 157 164 164 163 162 163 165 163 157 154 155 154 152 153 151 154 148 144 142 145 152 148 141 138 140 135 137 138 131 126 119
167 167 165 166 167 168 167 162 160 158 160 161 163 163 165 164 165 164 162 155 153 156 153 155 158 157 160 154 151 152 155 160 159 152 149 147 142 147 145 139 124 124
171 168 167 168 170 170 168 161 157 160 163 162 161 160 162 165 162 160 159 160 157 158 159 159 161 160 161 162 158 159 160 162 162 154 148 148 147 148 148 141 138 129
174 172 172 173 171 170 166 159 159 159 164 162 158 162 162 156 160 159 160 162 166 166 164 166 167 164 162 165 165 165 162 162 161 153 151 151 148 150 148 143 143 144
177 175 175 174 170 167 163 161 160 161 163 164 163 161 159 161 159 168 170 171 170 169 166 167 166 166 168 169 168 162 159 160 157 151 151 148 149 147 145 147 148 152
178 178 173 171 168 163 160 161 162 164 163 165 166 160 159 162 169 171 176 170 171 167 169 168 168 168 169 169 163 157 157 157 156 150 149 151 152 149 147 142 138 132
178 173 170 168 163 159 161 162 163 165 166 161 158 160 164 168 172 174 171 170 171 173 172 168 166 168 169 165 158 157 158 162 161 155 155 154 149 138 130 127 130 128
170 168 165 162 161 160 162 164 164 164 161 160 160 162 167 172 169 166 166 173 174 172 171 169 168 171 170 165 158 162 162 164 163 159 155 150 135 122 124 124 123 127
165 163 162 160 162 165 165 164 163 161 159 161 162 164 166 165 165 168 172 174 172 173 171 171 172 173 175 169 165 162 164 160 157 158 155 145 134 128 125 126 129 128
161 163 161 164 165 166 165 163 161 159 160 162 160 163 165 166 166 171 178 175 173 171 174 176 176 179 174 166 164 162 160 161 161 161 151 140 137 136 133 124 110 112
162 161 163 164 165 168 166 161 158 159 161 162 159 162 165 163 171 178 176 172 169 171 175 178 178 178 168 168 166 168 163 155 147 146 142 133 130 125 121 115 114 102
161 162 164 166 169 167 164 160 161 163 161 161 167 167 159 169 180 175 175 169 168 170 177 177 177 176 171 171 170 165 154 142 151 147 140 131 120 123 122 119 115 106
163 164 166 168 166 165 165 166 168 169 164 165 162 161 169 176 176 177 168 169 172 171 172 177 177 179 174 173 169 162 157 151 154 144 139 137 134 137 124 138 130 122
165 165 165 166 165 165 168 172 173 164 164 167 168 172 175 177 175 174 173 170 170 167 168 178 188 178 177 173 168 162 159 148 153 147 137 138 145 151 152 156 155 156
164 164 163 163 164 167 171 174 175 168 168 167 167 171 174 170 173 166 166 170 168 168 171 183 186 180 175 170 164 163 161 152 153 156 156 156 157 165 169 169 178 171
163 162 163 165 166 168 175 176 174 170 165 163 167 170 168 174 174 176 173 167 169 175 179 179 173 185 170 164 164 159 149 142 156 159 159 156 170 178 175 177 189 182
164 162 164 167 169 172 175 177 175 171 168 170 172 170 173 176 174 175 174 175 175 180 178 164 170 177 172 161 160 156 151 157 166 161 166 170 176 179 182 191 197 192
163 163 165 168 165 168 178 178 176 175 167 169 171 169 172 169 171 175 181 185 179 167 155 153 160 171 175 161 162 155 153 158 162 165 166 180 177 180 195 194 200 208
164 175 173 167 172 178 176 175 165 155 162 165 164 167 164 169 173 176 175 168 156 155 158 158 158 168 178 175 167 163 158 159 166 163 178 176 171 173 185 203 200 203